Location: Unspecified
(0.0000°N, 0.0000°E)
Time: 16:35:01
(UTC+00:00)

Vanguard 2 - Pass Details

Date: 24 November 2019
Orbit: 553 x 2938 km, 32.9° (Epoch: 13 December)

Event Time Altitude Azimuth Distance (km) Brightness Sun altitude
Exits shadow 03:09:19 19° 237° (WSW) 4,909 11.3 -36.4°
Maximum altitude 03:24:03 83° 323° (NW) 2,887 10.1 -33.1°
Drops below altitude 10° 03:39:36 10° 51° (NE) 4,922 11.9 -29.5°
Sets 03:42:53 0° 52° (NE) 5,674 12.3 -28.8°
